GW3518 Weather Reports


time (UTC)temp
C
wind
direction
speed
KPH
gust
KPH
rain 1hr
cm
rain 24hr
cm
rain mn
cm
humidity
%
barometer
mb
20260510193832 16 357 1.6 1.6 0.00 0.30 0.30 69 1011.2
20260510193328 16 165 0.0 0.0 0.00 0.30 0.30 77 1011.2
20260510192823 15 51 1.6 1.6 0.00 0.30 0.30 75 1011.3
20260510192319 15 95 1.6 3.2 0.00 0.30 0.30 75 1011.2
20260510191815 15 78 0.0 0.0 0.00 0.30 0.30 75 1011.3
20260510191311 16 95 1.6 3.2 0.00 0.30 0.30 76 1011.3
20260510190809 16 176 1.6 3.2 0.00 0.30 0.30 73 1011.3
20260510190306 15 17 3.2 4.8 0.00 0.30 0.30 76 1011.1
20260510185802 15 322 1.6 3.2 0.00 0.30 0.30 75 1011.1
20260510185301 16 84 0.0 3.2 0.00 0.30 0.30 76 1010.9
20260510184758 16 280 3.2 4.8 0.00 0.30 0.30 75 1010.9
20260510184254 16 349 1.6 1.6 0.00 0.30 0.30 76 1011.2
20260510183748 16 288 8.0 11.3 0.00 0.30 0.30 74 1011.0
20260510183244 16 76 0.0 1.6 0.00 0.30 0.30 75 1010.9
20260510182740 16 51 1.6 3.2 0.00 0.30 0.30 76 1010.7
20260510182236 15 164 0.0 1.6 0.00 0.30 0.30 77 1011.1
20260510181733 15 79 3.2 3.2 0.00 0.30 0.30 78 1010.8
20260510181231 15 74 1.6 1.6 0.00 0.30 0.30 81 1010.9
20260510180726 15 99 0.0 0.0 0.00 0.30 0.30 79 1010.9
20260510180224 15 188 0.0 0.0 0.00 0.30 0.30 81 1011.1
20260510175720 15 15 3.2 4.8 0.00 0.30 0.30 84 1010.9
20260510175216 15 355 3.2 3.2 0.00 0.30 0.30 85 1011.0
20260510174713 15 302 3.2 3.2 0.00 0.30 0.30 81 1010.9
20260510174210 15 352 3.2 4.8 0.00 0.30 0.30 82 1010.9
20260510173706 15 96 3.2 3.2 0.00 0.30 0.30 91 1011.1
20260510173202 14 96 0.0 1.6 0.00 0.30 0.30 86 1011.2
20260510172658 14 358 3.2 4.8 0.00 0.30 0.30 85 1010.9
20260510172154 14 292 3.2 3.2 0.00 0.30 0.30 91 1011.0
20260510171651 13 63 0.0 0.0 0.00 0.30 0.30 94 1011.1
20260510171149 13 93 0.0 1.6 0.00 0.30 0.30 94 1011.0
20260510170645 13 197 1.6 1.6 0.00 0.30 0.30 95 1011.3
20260510170141 12 322 0.0 0.0 0.00 0.30 0.30 99 1011.3
20260510165637 11 115 0.0 0.0 0.18 0.30 0.30 99 1011.2
20260510165133 11 68 0.0 0.0 0.30 0.30 0.30 99 1011.2
20260510164631 11 94 0.0 0.0 0.30 0.28 0.28 99 1011.3
20260510164128 11 165 0.0 0.0 0.30 0.25 0.25 99 1011.3
20260510163623 12 127 0.0 0.0 0.13 0.23 0.23 99 1010.9
20260510163120 12 206 0.0 0.0 0.00 0.20 0.20 99 1011.2
20260510162620 12 206 0.0 0.0 0.00 0.20 0.20 99 1011.0
20260510162117 12 206 0.0 0.0 0.00 0.20 0.20 99 1011.1
20260510161612 12 206 0.0 0.0 0.00 0.20 0.20 99 1010.9
20260510161109 12 206 0.0 0.0 0.00 0.20 0.20 99 1011.0
20260510160606 12 206 0.0 0.0 0.00 0.20 0.20 99 1010.9
20260510160106 12 206 0.0 0.0 0.18 0.20 0.20 99 1011.1
20260510155603 12 206 0.0 0.0 0.18 0.20 0.20 99 1011.1
20260510155059 11 206 0.0 0.0 0.00 0.18 0.18 99 1010.9
20260510154554 11 206 0.0 0.0 0.00 0.18 0.18 99 1010.9
20260510154050 11 206 0.0 0.0 0.00 0.18 0.18 99 1010.9
20260510153545 11 206 0.0 0.0 0.13 0.18 0.18 99 1011.0
20260510153042 11 206 0.0 0.0 0.30 0.18 0.18 99 1010.7
20260510152539 11 206 0.0 0.0 0.30 0.18 0.18 99 1011.1
20260510152035 11 206 0.0 0.0 0.61 0.13 0.13 99 1011.1
20260510151532 12 206 0.0 0.0 0.61 0.13 0.13 98 1011.0
20260510151030 12 251 0.0 0.0 0.00 0.03 0.03 95 1011.0
20260510150524 12 235 0.0 0.0 0.00 0.03 0.03 94 1010.5
20260510150021 12 195 0.0 0.0 0.00 0.03 0.03 95 1010.4
20260510145518 12 194 0.0 0.0 0.00 0.03 0.03 94 1010.2
20260510145014 12 194 0.0 0.0 0.00 0.03 0.03 94 1010.1
20260510144511 12 194 0.0 0.0 0.00 0.03 0.03 92 1010.1
20260510144007 12 193 0.0 0.0 0.00 0.03 0.03 91 1009.9
20260510143502 12 154 0.0 0.0 0.00 0.03 0.03 90 1010.2
20260510142959 12 155 0.0 0.0 0.00 0.03 0.03 89 1010.1
20260510142456 12 225 3.2 3.2 0.00 0.03 0.03 87 1010.4
20260510141952 12 157 0.0 0.0 0.00 0.03 0.03 91 1010.3
20260510141449 12 158 0.0 1.6 0.00 0.03 0.03 91 1010.5
20260510140946 12 133 0.0 0.0 0.00 0.03 0.03 92 1010.2
20260510140443 12 34 0.0 0.0 0.00 0.03 0.03 91 1010.4
20260510135942 12 170 0.0 0.0 0.00 0.03 0.03 90 1010.3
20260510135438 12 293 3.2 4.8 0.00 0.03 0.03 90 1010.4
20260510134935 12 190 0.0 1.6 0.00 0.03 0.03 92 1010.3
20260510134431 11 150 1.6 3.2 0.00 0.03 0.03 93 1010.3
20260510133928 12 191 0.0 0.0 0.00 0.03 0.03 91 1010.5
20260510133424 12 208 0.0 0.0 0.00 0.03 0.03 94 1010.6
20260510132919 11 287 0.0 0.0 0.00 0.03 0.03 94 1010.6
20260510132418 11 65 0.0 1.6 0.00 0.03 0.03 97 1010.6
20260510131914 11 88 0.0 0.0 0.00 0.03 0.03 98 1010.7
20260510131412 11 50 0.0 0.0 0.00 0.03 0.03 97 1010.5
20260510130909 11 21 0.0 0.0 0.00 0.03 0.03 97 1010.5
20260510130406 11 222 0.0 0.0 0.00 0.03 0.03 95 1010.3
20260510125903 11 165 0.0 0.0 0.00 0.03 0.03 97 1010.3
20260510125358 11 186 0.0 0.0 0.00 0.03 0.03 97 1010.3
20260510124855 11 251 0.0 1.6 0.00 0.03 0.03 99 1010.3
20260510124352 10 161 0.0 0.0 0.00 0.03 0.03 99 1010.1
20260510123848 10 184 0.0 0.0 0.00 0.03 0.03 99 1010.5
20260510123343 10 224 0.0 0.0 0.00 0.03 0.03 99 1010.8
20260510122840 10 62 0.0 0.0 0.00 0.03 0.03 99 1010.6
20260510122336 10 63 0.0 0.0 0.00 0.03 0.03 99 1010.5
20260510121833 10 181 0.0 0.0 0.00 0.03 0.03 99 1010.5
20260510121330 10 130 0.0 0.0 0.00 0.03 0.03 99 1010.4
20260510120827 10 173 0.0 0.0 0.00 0.03 0.03 99 1010.6
20260510120324 10 190 1.6 1.6 0.00 0.03 0.03 99 1010.6
20260510115820 10 98 0.0 0.0 0.00 0.03 0.03 99 1010.4
20260510115317 10 111 0.0 0.0 0.00 0.03 0.03 99 1010.5
20260510114813 10 91 0.0 0.0 0.00 0.03 0.03 99 1010.3
20260510114310 10 50 0.0 0.0 0.00 0.03 0.03 99 1010.1
20260510113805 9 40 0.0 0.0 0.00 0.03 0.03 99 1010.3
20260510113302 9 14 0.0 0.0 0.00 0.03 0.03 99 1010.1
20260510112759 9 95 0.0 0.0 0.00 0.03 0.03 99 1010.1
20260510112256 9 95 0.0 0.0 0.00 0.03 0.03 99 1010.2
20260510111752 9 50 0.0 0.0 0.00 0.03 0.03 99 1010.2
20260510111249 9 49 0.0 0.0 0.00 0.03 0.03 99 1010.1
20260510110748 9 48 0.0 0.0 0.00 0.03 0.03 99 1010.0
20260510110246 8 288 0.0 0.0 0.00 0.03 0.03 99 1009.6
20260510105746 8 288 0.0 0.0 0.00 0.03 0.03 99 1009.7
20260510105241 8 288 0.0 0.0 0.00 0.03 0.03 99 1009.9
20260510104737 8 288 0.0 0.0 0.00 0.03 0.03 99 1010.1
20260510104235 8 288 0.0 0.0 0.00 0.03 0.03 99 1009.9
20260510103731 8 288 0.0 0.0 0.00 0.03 0.03 99 1009.8
20260510103229 8 288 0.0 0.0 0.00 0.03 0.03 99 1009.6
20260510102723 8 288 0.0 0.0 0.00 0.03 0.03 99 1009.8
20260510102219 8 288 0.0 0.0 0.00 0.03 0.03 99 1009.5
20260510101716 8 288 0.0 0.0 0.00 0.03 0.03 99 1009.3
20260510101215 8 288 0.0 0.0 0.00 0.03 0.03 99 1009.2
20260510100710 8 288 0.0 0.0 0.00 0.03 0.03 99 1009.1
20260510100208 8 288 0.0 0.0 0.00 0.03 0.03 99 1008.8
20260510095703 8 289 0.0 0.0 0.00 0.03 0.03 99 1009.0
20260510095158 8 289 0.0 0.0 0.00 0.03 0.03 99 1008.7
20260510094657 8 289 0.0 0.0 0.00 0.03 0.03 99 1008.8
20260510094153 8 289 0.0 0.0 0.00 0.03 0.03 99 1008.6
20260510093649 8 289 0.0 0.0 0.00 0.03 0.03 99 1008.6
20260510093147 8 289 0.0 0.0 0.00 0.03 0.03 99 1008.6
20260510092643 8 289 0.0 0.0 0.00 0.03 0.03 99 1008.8
20260510092138 8 289 0.0 0.0 0.00 0.03 0.03 99 1008.7
20260510091635 8 289 0.0 0.0 0.00 0.03 0.03 99 1008.4
20260510091132 8 289 0.0 0.0 0.00 0.03 0.03 99 1008.2
20260510090629 8 289 0.0 0.0 0.00 0.03 0.03 99 1008.4
20260510090125 8 288 0.0 0.0 0.00 0.03 0.03 99 1008.2
20260510085620 8 287 0.0 0.0 0.00 0.03 0.03 99 1008.4
20260510085116 8 287 0.0 0.0 0.00 0.03 0.03 99 1008.4
20260510084612 8 287 0.0 0.0 0.00 0.03 0.03 99 1008.9
20260510084109 8 287 0.0 0.0 0.00 0.03 0.03 99 1008.8
20260510083606 8 287 0.0 0.0 0.00 0.03 0.03 99 1008.9
20260510083102 8 287 0.0 0.0 0.00 0.03 0.03 99 1009.0
20260510082558 8 287 0.0 0.0 0.00 0.03 0.03 99 1009.1
20260510082053 8 287 0.0 0.0 0.00 0.03 0.03 99 1009.1
20260510081548 8 287 0.0 0.0 0.00 0.03 0.03 99 1009.3
20260510081045 8 287 0.0 0.0 0.00 0.03 0.03 99 1009.3
20260510080544 8 287 0.0 0.0 0.00 0.03 0.03 99 1009.4
20260510080042 8 287 0.0 0.0 0.00 0.03 0.03 99 1009.2
20260510075539 8 287 0.0 0.0 0.00 0.03 0.03 99 1009.3
20260510075036 8 287 0.0 0.0 0.00 0.03 0.03 99 1009.1
20260510074533 8 287 0.0 0.0 0.00 0.03 0.03 99 1009.1
20260510074028 7 287 0.0 0.0 0.00 0.03 0.03 99 1009.1
20260510073524 7 287 0.0 0.0 0.00 0.03 0.03 99 1009.1
20260510073021 8 287 0.0 0.0 0.00 0.03 0.03 99 1009.3
20260510072519 7 287 0.0 0.0 0.00 0.03 0.03 99 1008.9
20260510072014 7 287 0.0 0.0 0.00 0.03 0.03 99 1009.0
20260510071510 7 287 0.0 0.0 0.00 0.03 0.03 99 1009.1
20260510071009 7 287 0.0 0.0 0.00 0.03 0.03 99 1009.1
20260510070505 7 287 0.0 0.0 0.00 0.03 0.03 99 1008.9
20260510070002 7 288 0.0 0.0 0.00 0.03 0.03 99 1009.2
20260510065458 7 288 0.0 0.0 0.00 0.03 0.03 99 1009.4
20260510064954 8 237 0.0 0.0 0.00 0.03 0.03 99 1009.1
20260510064451 7 237 0.0 0.0 0.00 0.03 0.03 99 1009.2
20260510063948 7 237 0.0 0.0 0.00 0.03 0.03 99 1009.5
20260510063445 7 237 0.0 0.0 0.00 0.03 0.03 99 1009.3
20260510062942 7 237 0.0 0.0 0.00 0.03 0.03 99 1009.2
20260510062436 7 237 0.0 0.0 0.00 0.03 0.03 99 1009.2
20260510061932 7 237 0.0 0.0 0.00 0.03 0.03 99 1009.1
20260510061429 7 236 0.0 0.0 0.00 0.03 0.03 99 1009.3
20260510060925 7 236 0.0 0.0 0.00 0.03 0.03 99 1009.3
20260510060423 7 238 0.0 0.0 0.00 0.03 0.03 99 1009.3
20260510055919 7 26 0.0 0.0 0.00 0.03 0.03 99 1009.3
20260510055414 7 29 0.0 0.0 0.00 0.03 0.03 99 1009.1
20260510054912 7 192 0.0 0.0 0.00 0.03 0.03 99 1009.1
20260510054408 7 152 0.0 0.0 0.00 0.03 0.03 99 1009.0
20260510053902 7 152 0.0 0.0 0.00 0.03 0.03 99 1009.1
20260510053358 7 152 0.0 0.0 0.00 0.03 0.03 99 1009.1
20260510052855 7 152 0.0 0.0 0.00 0.03 0.03 99 1009.4
20260510052351 7 152 0.0 0.0 0.00 0.03 0.03 99 1009.4
20260510051847 7 152 0.0 0.0 0.00 0.03 0.03 99 1009.2
20260510051344 7 152 0.0 0.0 0.00 0.03 0.03 99 1009.2
20260510050841 7 151 0.0 0.0 0.00 0.03 0.03 99 1009.2
20260510050337 7 142 1.6 1.6 0.18 0.03 0.03 99 1009.1
20260510045835 7 151 3.2 3.2 0.18 0.03 0.03 99 1009.3
20260510045331 7 56 1.6 3.2 0.00 0.00 0.00 99 1009.6
20260510044828 8 55 0.0 0.0 0.00 0.00 0.00 99 1009.7
20260510044325 7 55 0.0 0.0 0.00 0.00 0.00 99 1009.8
20260510043821 7 55 0.0 0.0 0.00 0.00 0.00 99 1009.6
20260510043318 7 55 0.0 0.0 0.00 0.00 0.00 99 1009.6
20260510042815 7 55 0.0 0.0 0.00 0.00 0.00 99 1009.6
20260510042311 7 55 0.0 0.0 0.00 0.00 0.00 99 1009.5
20260510041808 7 55 0.0 0.0 0.00 0.00 0.00 99 1009.4
20260510041306 7 55 0.0 0.0 0.00 0.00 0.00 99 1009.6
20260510040803 7 55 0.0 0.0 0.00 0.00 0.00 99 1009.6
20260510040259 7 55 0.0 0.0 0.00 0.00 0.00 99 1009.6
20260510035754 7 55 0.0 0.0 0.00 0.30 0.30 99 1009.5
20260510035250 7 55 0.0 0.0 0.00 0.30 0.30 99 1009.8
20260510034747 7 55 0.0 0.0 0.00 0.30 0.30 99 1009.8
20260510034245 7 55 0.0 0.0 0.00 0.30 0.30 99 1009.6
20260510033740 7 55 0.0 0.0 0.00 0.30 0.30 99 1009.8
20260510033238 7 55 0.0 0.0 0.00 0.30 0.30 99 1009.4
20260510032734 7 55 0.0 0.0 0.00 0.30 0.30 99 1009.5
20260510032231 7 55 0.0 0.0 0.00 0.30 0.30 99 1009.6
20260510031725 7 55 0.0 0.0 0.00 0.30 0.30 99 1009.6
20260510031222 7 55 0.0 0.0 0.00 0.30 0.30 99 1009.8
20260510030721 7 55 0.0 0.0 0.00 0.30 0.30 99 1009.8
20260510030219 7 55 0.0 0.0 0.00 0.30 0.30 99 1009.7
20260510025716 7 55 0.0 0.0 0.00 0.30 0.30 99 1009.9
20260510025213 7 55 0.0 0.0 0.00 0.30 0.30 99 1009.9
20260510024710 7 55 0.0 0.0 0.00 0.30 0.30 99 1010.0
20260510024207 7 55 0.0 0.0 0.00 0.30 0.30 99 1010.2
20260510023702 7 55 0.0 0.0 0.00 0.30 0.30 99 1009.9
20260510023159 7 55 0.0 0.0 0.00 0.30 0.30 99 1010.0
20260510022655 7 55 0.0 0.0 0.00 0.30 0.30 99 1010.0
20260510022150 7 55 0.0 0.0 0.00 0.30 0.30 99 1010.1
20260510021646 7 55 0.0 0.0 0.00 0.30 0.30 99 1010.2
20260510021143 7 55 0.0 0.0 0.00 0.30 0.30 99 1010.1
20260510020637 7 55 0.0 0.0 0.00 0.30 0.30 99 1010.3
20260510020133 7 55 0.0 0.0 0.00 0.30 0.30 99 1010.0
20260510015629 7 55 0.0 0.0 0.00 0.30 0.30 99 1010.1
20260510015126 7 55 0.0 0.0 0.00 0.30 0.30 99 1010.4
20260510014621 7 55 0.0 0.0 0.00 0.30 0.30 99 1010.3
20260510014119 7 55 0.0 0.0 0.00 0.30 0.30 99 1010.5
20260510013619 7 55 0.0 0.0 0.00 0.30 0.30 99 1010.5
20260510013115 7 55 0.0 0.0 0.00 0.30 0.30 99 1010.3
20260510012614 7 55 0.0 0.0 0.00 0.30 0.30 99 1010.3
20260510012111 7 55 0.0 0.0 0.00 0.30 0.30 99 1010.5
20260510011610 7 55 0.0 0.0 0.00 0.30 0.30 99 1010.3
20260510011106 7 55 0.0 0.0 0.00 0.30 0.30 99 1010.4
20260510010603 7 55 0.0 0.0 0.00 0.30 0.30 99 1010.1
20260510010100 7 55 0.0 0.0 0.00 0.30 0.30 99 1010.2
20260510005555 7 55 0.0 0.0 0.00 0.30 0.30 99 1010.1
20260510005053 7 55 0.0 0.0 0.00 0.30 0.30 99 1010.2
20260510004551 7 55 0.0 0.0 0.00 0.30 0.30 99 1010.1
20260510004049 7 55 0.0 0.0 0.00 0.30 0.30 99 1010.0
20260510003545 7 55 0.0 0.0 0.00 0.30 0.30 99 1010.3
20260510003041 7 55 0.0 0.0 0.00 0.30 0.30 99 1010.1
20260510002536 7 55 0.0 0.0 0.00 0.30 0.30 99 1009.8
20260510002034 7 55 0.0 0.0 0.00 0.30 0.30 99 1009.9
20260510001531 7 55 0.0 0.0 0.00 0.30 0.30 99 1009.7
20260510001029 7 55 0.0 0.0 0.00 0.30 0.30 99 1010.0
20260510000524 7 55 0.0 0.0 0.00 0.30 0.30 99 1009.9
20260510000021 7 55 0.0 0.0 0.00 0.30 0.30 99 1009.7
20260509235518 7 55 0.0 0.0 0.00 0.30 0.30 99 1009.7
20260509235014 7 55 0.0 0.0 0.00 0.30 0.30 99 1009.5
20260509234511 7 55 0.0 0.0 0.00 0.30 0.30 99 1009.8
20260509234009 7 55 0.0 0.0 0.00 0.30 0.30 99 1009.9
20260509233501 7 55 0.0 0.0 0.00 0.30 0.30 99 1009.5
20260509232957 7 55 0.0 0.0 0.00 0.30 0.30 99 1009.6
20260509232455 7 55 0.0 0.0 0.00 0.30 0.30 99 1009.7
20260509231950 7 55 0.0 0.0 0.00 0.30 0.30 99 1009.4
20260509231447 7 55 0.0 0.0 0.00 0.30 0.30 99 1009.5
20260509230945 7 55 0.0 0.0 0.00 0.30 0.30 99 1009.5
20260509230442 7 55 0.0 0.0 0.00 0.30 0.30 99 1009.7
20260509225938 7 55 0.0 0.0 0.00 0.30 0.30 99 1009.6
20260509225435 7 55 0.0 0.0 0.00 0.30 0.30 99 1009.5
20260509224931 7 55 0.0 0.0 0.00 0.30 0.30 99 1009.7
20260509224426 7 55 0.0 0.0 0.00 0.30 0.30 99 1009.7
20260509223923 7 55 0.0 0.0 0.00 0.30 0.30 99 1009.7
20260509223420 7 55 0.0 0.0 0.00 0.30 0.30 99 1009.8
20260509222918 7 55 0.0 0.0 0.00 0.30 0.30 99 1009.7
20260509222412 7 55 0.0 0.0 0.00 0.30 0.30 99 1009.9
20260509221908 7 55 0.0 0.0 0.00 0.30 0.30 99 1009.8
20260509221405 7 55 0.0 0.0 0.00 0.30 0.30 99 1009.8
20260509220901 7 55 0.0 0.0 0.00 0.30 0.30 99 1009.7
20260509220357 7 55 0.0 0.0 0.00 0.30 0.30 99 1009.8
20260509215852 7 55 0.0 0.0 0.00 0.30 0.30 99 1009.8
20260509215344 7 55 0.0 0.0 0.00 0.30 0.30 99 1009.9
20260509214841 7 55 0.0 0.0 0.00 0.30 0.30 99 1009.9
20260509214338 7 55 0.0 0.0 0.00 0.30 0.30 99 1010.0
20260509213835 7 55 0.0 0.0 0.00 0.30 0.30 99 1010.0
20260509213329 7 55 0.0 0.0 0.00 0.30 0.30 99 1010.0
20260509212822 7 55 0.0 0.0 0.00 0.30 0.30 99 1010.2
20260509212320 7 55 0.0 0.0 0.00 0.30 0.30 99 1010.1
20260509211815 7 55 0.0 0.0 0.00 0.30 0.30 99 1010.4
20260509211311 7 55 0.0 0.0 0.00 0.30 0.30 99 1010.0
20260509210808 7 55 0.0 0.0 0.00 0.30 0.30 99 1010.3
20260509210306 7 55 0.0 0.0 0.00 0.30 0.30 99 1010.3
20260509205805 7 55 0.0 0.0 0.00 0.30 0.30 99 1010.1
20260509205300 7 55 0.0 0.0 0.00 0.30 0.30 99 1010.0
20260509204756 7 55 0.0 0.0 0.00 0.30 0.30 99 1010.3
20260509204253 7 55 0.0 0.0 0.00 0.30 0.30 99 1010.2
20260509203749 7 55 0.0 0.0 0.00 0.30 0.30 99 1010.4
20260509203247 7 55 0.0 0.0 0.00 0.30 0.30 99 1010.3
20260509202742 7 55 0.0 0.0 0.00 0.30 0.30 99 1010.2
20260509202238 7 55 0.0 0.0 0.00 0.30 0.30 99 1010.2
20260509201733 7 55 0.0 0.0 0.00 0.30 0.30 99 1010.2
20260509201230 7 55 0.0 0.0 0.00 0.30 0.30 99 1010.2
20260509200726 7 55 0.0 0.0 0.13 0.30 0.30 99 1010.3
20260509200222 7 55 0.0 0.0 0.13 0.30 0.30 99 1010.1
20260509195718 7 55 0.0 0.0 0.00 0.28 0.28 99 1010.4
20260509195213 7 55 0.0 0.0 0.00 0.28 0.28 99 1010.4
20260509194712 7 55 0.0 0.0 0.00 0.28 0.28 99 1010.5